Latest Coastal Weather Observations for Lord Howe Island

IDN60701

Issued at 8:12 am EDT Saturday 28 February 2015 (issued every 10 minutes, with the page automatically refreshed every 10 minutes)

About coastal observations | Map of coastal stations | Coastal observations for NSW | Marine services | Other Formats
Station Details ID: 200839 Name: LORD HOWE ISLAND AERO Lat: -31.54 Lon: 159.08 Height: 5.0 m
Data from the previous 72 hours. | See also: Recent months at Lord Howe Island
Date/Time
EDT
Temp

°C
Wind Pressure Rain
since 9am
mm
Weather Cloud Vis
km
Sea
Height
m
Swell
Dir
 
Speed
knots
Gust
knots
hPa Trend Height
m
Period
s
Dir
28/08:00am 23.6 ENE 11 13 1013.5 - 0.0 - Partly cloudy 10 - - - -
28/07:30am 22.9 ENE 9 12 1013.4 - 0.0 - Partly cloudy 10 - - - -
28/07:00am 22.6 ENE 10 12 1013.1 - 0.0 - Partly cloudy 10 - - - -
28/06:45am 22.6 ENE 12 14 1012.9 - 0.0 - Partly cloudy 10 - - - -
28/06:30am 22.4 ENE 10 13 1012.8 - 0.0 - Partly cloudy 10 - - - -
28/06:00am 22.2 ENE 11 13 1012.5 R 0.0 Fine Mostly clear 15 - - - -
28/05:30am 22.3 ENE 11 13 1012.1 - 0.0 - Partly cloudy 10 - - - -
28/05:00am 22.2 ENE 11 14 1012.1 - 0.0 - Partly cloudy 10 - - - -
28/04:30am 22.2 E 10 13 1011.8 - 0.0 - - 10 - - - -
28/04:00am 22.2 ENE 10 13 1011.9 - 0.0 - Partly cloudy 10 - - - -
28/03:30am 22.2 ENE 10 13 1011.9 - 0.0 - Partly cloudy 10 - - - -
28/03:00am 22.2 E 10 13 1012.0 - 0.0 - Mostly clear 10 - - - -
28/02:30am 22.4 ENE 12 15 1012.0 - 0.0 - Partly cloudy 10 - - - -
28/02:00am 22.4 ENE 11 14 1012.3 - 0.0 - Partly cloudy 10 - - - -
28/01:30am 22.6 ENE 14 16 1012.3 - 0.0 - Partly cloudy 10 - - - -
28/01:00am 22.5 ENE 12 15 1012.6 - 0.0 - Partly cloudy 10 - - - -
28/12:30am 22.6 ENE 13 15 1012.8 - 0.0 - Partly cloudy 10 - - - -
28/12:00am 22.7 ENE 14 17 1013.1 - 0.0 - Mostly cloudy 10 - - - -
 
Date/Time
EDT
Temp

°C
Wind Pressure Rain
since 9am
mm
Weather Cloud Vis
km
Sea
Height
m
Swell
Dir
 
Speed
knots
Gust
knots
hPa Trend Height
m
Period
s
Dir
27/11:41pm 22.8 ENE 12 15 1013.1 - 0.0 - Partly cloudy 10 - - - -
27/11:30pm 22.9 ENE 11 15 1013.1 - 0.0 - Partly cloudy 10 - - - -
27/11:26pm 23.0 ENE 10 14 1013.2 - 0.0 - Partly cloudy 10 - - - -
27/11:00pm 22.7 ENE 11 13 1013.2 - 0.0 - Partly cloudy 10 - - - -
27/10:30pm 22.7 ENE 12 14 1013.3 - 0.0 - Partly cloudy 10 - - - -
27/10:00pm 22.7 ENE 11 13 1013.3 - 0.0 - Partly cloudy 10 - - - -
27/09:30pm 22.8 ENE 12 14 1013.3 - 0.0 - Partly cloudy 10 - - - -
27/09:00pm 22.8 ENE 11 14 1013.2 - 0.0 - Partly cloudy 10 - - - -
27/08:30pm 22.8 ENE 12 14 1012.7 - 0.0 - Partly cloudy 10 - - - -
27/08:00pm 22.7 ENE 11 13 1012.4 - 0.0 - - 10 - - - -
27/07:30pm 22.7 ENE 10 13 1012.1 - 0.0 - - 10 - - - -
27/07:00pm 22.8 ENE 11 13 1011.8 - 0.0 - - 10 - - - -
27/06:30pm 23.1 ENE 12 14 1011.4 - 0.0 - - 10 - - - -
27/06:00pm 23.3 ENE 11 14 1011.1 - 0.0 - - 10 - - - -
27/05:30pm 23.4 E 11 13 1011.1 - 0.0 - - 10 - - - -
27/05:00pm 24.1 ENE 10 12 1011.1 - 0.0 - - 10 - - - -
27/04:30pm 24.4 ENE 10 13 1011.0 - 0.0 - - 10 - - - -
27/04:00pm 24.7 ENE 9 12 1011.1 - 0.0 - - 10 - - - -
27/03:30pm 24.6 ENE 10 12 1010.9 - 0.0 - - 10 - - - -
27/03:00pm 24.6 ENE 10 13 1011.1 S 0.0 Fine Partly cloudy 25 - - - -
27/02:30pm 25.3 ENE 10 12 1011.2 - 0.0 - - 10 - - - -
27/02:00pm 24.9 ENE 10 12 1011.4 - 0.0 - - 10 - - - -
27/01:30pm 25.3 ENE 11 12 1011.7 - 0.0 - - 10 - - - -
27/01:00pm 25.3 NE 10 12 1012.0 - 0.0 - - 10 - - - -
27/12:30pm 25.1 NE 11 12 1012.0 - 0.0 - - 10 - - - -
27/12:00pm 24.5 ENE 10 12 1012.2 - 0.0 - - 10 - - - -
27/11:30am 24.5 ENE 11 13 1012.2 - 0.0 - - 10 - - - -
27/11:00am 25.2 ENE 11 13 1012.2 - 0.0 - Partly cloudy 10 - - - -
27/10:30am 25.0 NE 11 13 1012.1 - 0.0 - Partly cloudy 10 - - - -
27/10:00am 24.6 ENE 10 12 1012.1 - 0.0 - - 10 - - - -
27/09:30am 24.3 ENE 10 12 1011.9 - 0.0 - - 10 - - - -
27/09:00am 24.5 ENE 11 13 1011.8 R 0.0 Fine Mostly cloudy 20 - - - -
27/08:30am 24.1 NE 10 11 1011.6 - 0.0 - Partly cloudy 10 - - - -
27/08:00am 23.7 NE 9 11 1011.5 - 0.0 - Partly cloudy 10 - - - -
27/07:59am 23.7 NE 9 11 1011.5 - 0.0 - Partly cloudy 10 - - - -
27/07:45am 23.5 NE 9 11 1011.2 - 0.0 - Partly cloudy 10 - - - -
27/07:30am 22.9 ENE 9 11 1011.1 - 0.0 - Partly cloudy 10 - - - -
27/07:00am 22.6 NE 8 10 1010.9 - 0.0 - Partly cloudy 9 - - - -
27/06:30am 22.2 ENE 9 10 1010.5 - 0.0 - Partly cloudy 10 - - - -
27/06:00am 22.0 ENE 8 9 1010.3 R 0.0 Fine Mostly clear 15 - - - -
27/05:30am 22.1 NE 9 11 1009.9 - 0.0 - Partly cloudy 9 - - - -
27/05:00am 22.2 NE 8 10 1009.8 - 0.0 - Partly cloudy 10 - - - -
27/04:30am 21.9 NE 7 8 1009.8 - 0.0 - Partly cloudy 9 - - - -
27/04:00am 21.9 NE 7 9 1009.8 - 0.0 - Partly cloudy 8 - - - -
27/03:30am 21.8 NE 7 8 1009.7 - 0.0 - Partly cloudy 9 - - - -
27/03:00am 21.9 NE 7 9 1009.8 - 0.0 - - 9 - - - -
27/02:30am 22.0 NNE 5 7 1010.1 - 0.0 - Partly cloudy 10 - - - -
27/02:00am 22.1 NE 7 9 1010.3 - 0.0 - Partly cloudy 9 - - - -
27/01:30am 22.2 ENE 7 9 1010.3 - 0.0 - Partly cloudy 9 - - - -
27/01:17am 22.3 ENE 7 9 1010.3 - 0.0 - Partly cloudy 10 - - - -
27/01:00am 22.1 NE 7 9 1010.6 - 0.0 - Partly cloudy 9 - - - -
27/12:45am 22.4 NE 7 8 1010.8 - 0.0 - Partly cloudy 9 - - - -
27/12:30am 22.3 NE 7 8 1011.0 - 0.0 - Partly cloudy 9 - - - -
27/12:00am 22.3 ENE 7 10 1011.0 - 0.0 - Cloudy 10 - - - -
 
Date/Time
EDT
Temp

°C
Wind Pressure Rain
since 9am
mm
Weather Cloud Vis
km
Sea
Height
m
Swell
Dir
 
Speed
knots
Gust
knots
hPa Trend Height
m
Period
s
Dir
26/11:30pm 22.4 E 7 9 1010.9 - 0.0 - Partly cloudy 10 - - - -
26/11:00pm 22.1 E 6 7 1011.2 - 0.0 - Partly cloudy 9 - - - -
26/10:30pm 21.9 E 6 8 1011.2 - 0.0 - Partly cloudy 10 - - - -
26/10:00pm 22.3 E 7 10 1011.1 - 0.0 - Partly cloudy 10 - - - -
26/09:30pm 22.2 ENE 7 8 1011.2 - 0.0 - Partly cloudy 10 - - - -
26/09:00pm 22.3 E 7 9 1010.9 - 0.0 - Mostly clear 10 - - - -
26/08:30pm 21.8 E 6 9 1010.7 - 0.0 - - 9 - - - -
26/08:00pm 21.8 E 7 10 1010.2 - 0.0 - - 10 - - - -
26/07:30pm 21.6 ESE 4 5 1010.1 - 0.0 - - 10 - - - -
26/07:00pm 22.1 E 5 7 1009.8 - 0.0 - - 10 - - - -
26/06:30pm 22.7 ESE 5 6 1009.8 - 0.0 - - 10 - - - -
26/06:00pm 23.5 E 5 8 1009.8 - 0.0 - - 10 - - - -
26/05:30pm 23.5 E 6 8 1009.6 - 0.0 - Partly cloudy 10 - - - -
26/05:00pm 24.0 E 6 8 1009.7 - 0.0 - Partly cloudy 10 - - - -
26/04:30pm 24.3 ENE 7 9 1009.6 - 0.0 - Partly cloudy 10 - - - -
26/04:00pm 24.1 ENE 7 10 1009.5 - 0.0 - - 10 - - - -
26/03:30pm 24.5 ENE 8 10 1009.7 - 0.0 - - 10 - - - -
26/03:00pm 24.3 ENE 8 10 1009.9 R 0.0 Fine Mostly clear 30 - - - -
26/02:30pm 24.8 ENE 8 9 1010.2 - 0.0 - Mostly clear 10 - - - -
26/02:00pm 24.9 ENE 8 10 1010.5 - 0.0 - Mostly clear 10 - - - -
26/01:30pm 25.1 NE 8 11 1010.7 - 0.0 - Mostly clear 10 - - - -
26/01:00pm 24.7 NE 8 10 1010.6 - 0.0 - Mostly clear 10 - - - -
26/12:30pm 24.6 ENE 9 11 1010.7 - 0.0 - Mostly clear 10 - - - -
26/12:00pm 25.1 ENE 8 10 1010.9 F 0.0 Fine Mostly clear 30 - - - -
26/11:30am 24.7 E 8 11 1011.1 - 0.0 - Mostly clear 10 - - - -
26/11:00am 24.7 E 9 11 1011.3 - 0.0 - Partly cloudy 10 - - - -
26/10:30am 24.1 E 8 10 1011.5 - 0.0 - Mostly clear 10 - - - -
26/10:00am 24.4 ENE 8 10 1011.4 - 0.0 - Mostly clear 10 - - - -
26/09:30am 24.1 ENE 8 10 1011.4 - 0.0 - Mostly clear 10 - - - -
26/09:00am 23.8 ENE 8 10 1011.4 S 0.0 Fine Mostly clear 25 - - - -
26/08:30am 23.7 E 8 10 1011.3 - 0.0 - Mostly clear 10 - - - -
26/08:00am 23.1 E 8 11 1011.2 - 0.0 - Mostly clear 10 - - - -
26/07:30am 22.8 E 8 10 1011.0 - 0.0 - Mostly clear 10 - - - -
26/07:00am 22.3 E 9 11 1010.7 - 0.0 - Mostly clear 10 - - - -
26/06:30am 21.6 E 7 11 1010.5 - 0.0 - Mostly clear 10 - - - -
26/06:00am 20.5 SE 4 5 1010.4 F 0.0 Fine Partly cloudy 22 - - - -
26/05:30am 20.7 ESE 4 8 1010.4 - 0.0 - - 10 - - - -
26/05:00am 20.2 ESE 4 6 1010.3 - 0.0 - - 10 - - - -
26/04:30am 21.1 E 7 9 1010.5 - 0.0 - - 10 - - - -
26/04:00am 21.7 E 7 10 1010.6 - 0.0 - Partly cloudy 10 - - - -
26/03:30am 21.9 E 9 11 1010.6 - 0.0 - Partly cloudy 10 - - - -
26/03:00am 22.0 E 8 10 1011.0 - 0.0 - - 10 - - - -
26/02:30am 22.2 E 9 13 1011.2 - 0.0 - Partly cloudy 10 - - - -
26/02:00am 22.1 E 10 12 1011.5 - 0.0 - Partly cloudy 10 - - - -
26/01:30am 22.2 E 10 13 1011.6 - 0.0 - Partly cloudy 10 - - - -
26/01:00am 22.2 E 9 12 1011.8 - 0.0 - Partly cloudy 10 - - - -
26/12:30am 22.3 E 10 12 1012.0 - 0.0 - Partly cloudy 10 - - - -
26/12:00am 22.3 E 10 13 1012.3 - 0.0 - Cloudy 10 - - - -
 
Date/Time
EDT
Temp

°C
Wind Pressure Rain
since 9am
mm
Weather Cloud Vis
km
Sea
Height
m
Swell
Dir
 
Speed
knots
Gust
knots
hPa Trend Height
m
Period
s
Dir
25/11:30pm 22.6 E 11 14 1012.6 - 0.0 - Partly cloudy 10 - - - -
25/11:00pm 22.5 ENE 11 15 1012.6 - 0.0 - Partly cloudy 10 - - - -
25/10:30pm 22.4 E 11 13 1012.8 - 0.0 - - 9 - - - -
25/10:00pm 22.4 E 10 12 1012.9 - 0.0 - Partly cloudy 10 - - - -
25/09:30pm 22.5 E 11 15 1013.0 - 0.0 - Partly cloudy 9 - - - -
25/09:00pm 22.6 E 11 13 1012.9 - 0.0 - Mostly clear 9 - - - -
25/08:30pm 22.7 E 10 13 1012.7 - 0.0 - Partly cloudy 10 - - - -
25/08:00pm 22.5 E 11 14 1012.5 - 0.0 - Partly cloudy 8 - - - -
25/07:30pm 22.5 ENE 11 14 1012.4 - 0.0 - Partly cloudy 10 - - - -
25/07:25pm 22.5 E 12 15 1012.3 - 0.0 - Partly cloudy 10 - - - -
25/07:00pm 22.7 ENE 12 16 1012.1 - 0.0 - Partly cloudy 10 - - - -
25/06:59pm 22.8 ENE 12 16 1012.1 - 0.0 - Partly cloudy 10 - - - -
25/06:30pm 23.2 E 13 17 1011.9 - 0.0 - Partly cloudy 10 - - - -
25/06:00pm 23.8 E 11 16 1012.1 - 0.0 - Cloudy 10 - - - -
25/05:30pm 23.9 E 10 14 1012.1 - 0.0 - Partly cloudy 10 - - - -
25/05:00pm 24.2 E 13 16 1012.0 - 0.0 - Partly cloudy 10 - - - -
25/04:30pm 24.6 E 13 15 1012.1 - 0.0 - - 10 - - - -
25/04:00pm 24.1 E 14 17 1012.1 - 0.0 - Partly cloudy 10 - - - -
25/03:57pm 24.1 E 14 17 1012.1 - 0.0 - Partly cloudy 10 - - - -
25/03:33pm 24.0 E 12 14 1012.2 - 0.0 - Partly cloudy 10 - - - -
25/03:30pm 24.1 E 12 14 1012.2 - 0.0 - Partly cloudy 10 - - - -
25/03:00pm 24.5 E 12 15 1012.4 F 0.0 Fine Partly cloudy 22 - - - -
25/02:30pm 25.0 E 12 16 1012.7 - 0.0 - Mostly clear 10 - - - -
25/02:00pm 24.4 E 13 15 1012.9 - 0.0 - Mostly clear 10 - - - -
25/01:30pm 25.4 E 13 15 1013.2 - 0.0 - Mostly clear 10 - - - -
25/01:00pm 25.0 E 12 16 1013.5 - 0.0 - Mostly clear 10 - - - -
25/12:30pm 25.1 E 12 15 1013.7 - 0.0 - Mostly clear 10 - - - -
25/12:00pm 25.0 E 14 16 1013.9 R 0.0 Fine Partly cloudy 22 - - - -
25/11:30am 25.0 E 13 16 1014.0 - 0.0 - Mostly clear 10 - - - -
25/11:00am 25.2 E 13 17 1014.0 - 0.0 - Mostly clear 10 - - - -
25/10:30am 24.9 E 15 17 1013.9 - 0.0 - Mostly clear 10 - - - -
25/10:00am 24.6 E 14 17 1013.5 - 0.0 - Mostly clear 10 - - - -
25/09:30am 24.6 E 13 16 1013.5 - 0.0 - Mostly clear 10 - - - -
25/09:00am 24.3 E 12 15 1013.6 R 0.0 Fine Partly cloudy 22 - - - -
25/08:30am 23.6 E 11 14 1013.5 - 0.0 - Mostly clear 10 - - - -

Other Formats:

Comma delimited format used in spreadsheet applications
http://www.bom.gov.au/fwo/IDN60701/IDN60701.94995.axf

JavaScript Object Notation format (JSON) in row-major order
http://www.bom.gov.au/fwo/IDN60701/IDN60701.94995.json